Time,TemperatureF,DewpointF,PressureIn,WindDirection,WindDirectionDegrees,WindSpeedMPH,WindSpeedGustMPH,Humidity,HourlyPrecipIn,Conditions,Clouds,dailyrainin,SoftwareType,DateUTC
2013-03-08 00:00:00,23.5,20.2,30.44,WNW,302,1.0,2.0,87,0.00,,---,0.00,VWS V14.01,2013-03-08 05:00:00,
2013-03-08 00:02:00,23.4,20.1,30.44,WNW,302,0.0,2.0,87,0.00,,---,0.00,VWS V14.01,2013-03-08 05:02:00,
2013-03-08 00:07:00,23.2,20.2,30.44,WNW,302,0.0,0.0,88,0.00,,---,0.00,VWS V14.01,2013-03-08 05:07:00,
2013-03-08 00:12:00,23.0,20.0,30.44,WNW,302,0.0,0.0,88,0.00,,---,0.00,VWS V14.01,2013-03-08 05:12:00,
2013-03-08 00:17:00,22.8,19.8,30.44,WNW,302,0.0,0.0,88,0.00,,---,0.00,VWS V14.01,2013-03-08 05:17:00,
2013-03-08 00:22:00,22.6,19.6,30.44,WNW,302,0.0,0.0,88,0.00,,---,0.00,VWS V14.01,2013-03-08 05:22:00,
2013-03-08 00:27:00,22.5,19.5,30.44,WNW,302,0.0,0.0,88,0.00,,---,0.00,VWS V14.01,2013-03-08 05:27:00,
2013-03-08 00:32:00,22.3,19.3,30.44,WNW,302,0.0,0.0,88,0.00,,---,0.00,VWS V14.01,2013-03-08 05:32:00,
2013-03-08 00:37:00,22.1,19.4,30.45,WNW,302,0.0,0.0,89,0.00,,---,0.00,VWS V14.01,2013-03-08 05:37:00,
2013-03-08 00:42:00,22.0,19.3,30.44,WNW,302,0.0,0.0,89,0.00,,---,0.00,VWS V14.01,2013-03-08 05:42:00,
2013-03-08 00:47:00,21.8,19.1,30.45,WNW,302,0.0,0.0,89,0.00,,---,0.00,VWS V14.01,2013-03-08 05:47:00,
2013-03-08 00:52:00,21.7,19.0,30.45,WNW,302,0.0,0.0,89,0.00,,---,0.00,VWS V14.01,2013-03-08 05:52:00,
2013-03-08 00:57:00,21.5,18.8,30.45,WNW,302,0.0,0.0,89,0.00,,---,0.00,VWS V14.01,2013-03-08 05:57:00,
2013-03-08 01:02:00,21.4,18.9,30.45,WNW,302,0.0,0.0,90,0.00,,---,0.00,VWS V14.01,2013-03-08 06:02:00,
2013-03-08 01:07:00,21.3,18.8,30.45,WNW,302,0.0,0.0,90,0.00,,---,0.00,VWS V14.01,2013-03-08 06:07:00,
2013-03-08 01:12:00,21.3,18.8,30.45,WNW,302,0.0,0.0,90,0.00,,---,0.00,VWS V14.01,2013-03-08 06:12:00,
2013-03-08 01:17:00,21.2,18.7,30.45,WNW,302,0.0,0.0,90,0.00,,---,0.00,VWS V14.01,2013-03-08 06:17:00,
2013-03-08 01:22:00,21.1,18.6,30.45,WNW,302,0.0,0.0,90,0.00,,---,0.00,VWS V14.01,2013-03-08 06:22:00,
2013-03-08 01:27:00,20.8,18.3,30.45,WNW,302,0.0,0.0,90,0.00,,---,0.00,VWS V14.01,2013-03-08 06:27:00,
2013-03-08 01:32:00,20.7,18.2,30.45,WNW,302,0.0,0.0,90,0.00,,---,0.00,VWS V14.01,2013-03-08 06:32:00,
2013-03-08 01:37:00,20.5,18.0,30.46,WNW,302,0.0,0.0,90,0.00,,---,0.00,VWS V14.01,2013-03-08 06:37:00,
2013-03-08 01:42:00,20.6,18.4,30.46,WNW,302,2.0,2.0,91,0.00,,---,0.00,VWS V14.01,2013-03-08 06:42:00,
2013-03-08 01:47:00,20.6,18.4,30.46,WNW,302,0.0,0.0,91,0.00,,---,0.00,VWS V14.01,2013-03-08 06:47:00,
2013-03-08 01:52:00,20.6,18.4,30.46,WNW,302,0.0,0.0,91,0.00,,---,0.00,VWS V14.01,2013-03-08 06:52:00,
2013-03-08 01:57:00,20.5,18.3,30.46,WNW,302,0.0,0.0,91,0.00,,---,0.00,VWS V14.01,2013-03-08 06:57:00,
2013-03-08 02:02:00,20.4,18.2,30.46,WNW,302,0.0,0.0,91,0.00,,---,0.00,VWS V14.01,2013-03-08 07:02:00,
2013-03-08 02:07:00,20.4,18.5,30.46,WNW,302,0.0,0.0,92,0.00,,---,0.00,VWS V14.01,2013-03-08 07:07:00,
2013-03-08 02:12:00,20.2,18.2,30.46,WNW,302,0.0,0.0,92,0.00,,---,0.00,VWS V14.01,2013-03-08 07:12:00,
2013-03-08 02:17:00,20.1,18.1,30.46,WNW,302,0.0,0.0,92,0.00,,---,0.00,VWS V14.01,2013-03-08 07:17:00,
2013-03-08 02:22:00,20.0,18.0,30.46,WNW,302,0.0,0.0,92,0.00,,---,0.00,VWS V14.01,2013-03-08 07:22:00,
2013-03-08 02:27:00,20.0,18.0,30.46,WNW,302,0.0,0.0,92,0.00,,---,0.00,VWS V14.01,2013-03-08 07:27:00,
2013-03-08 02:32:00,19.8,17.9,30.46,WNW,302,0.0,0.0,92,0.00,,---,0.00,VWS V14.01,2013-03-08 07:32:00,
2013-03-08 02:37:00,19.7,17.8,30.47,WNW,302,0.0,0.0,92,0.00,,---,0.00,VWS V14.01,2013-03-08 07:37:00,
2013-03-08 02:42:00,19.5,17.6,30.47,WNW,302,0.0,0.0,92,0.00,,---,0.00,VWS V14.01,2013-03-08 07:42:00,
2013-03-08 02:47:00,19.4,17.5,30.47,WNW,302,0.0,0.0,92,0.00,,---,0.00,VWS V14.01,2013-03-08 07:47:00,
2013-03-08 02:52:00,19.4,17.5,30.46,WNW,302,0.0,0.0,92,0.00,,---,0.00,VWS V14.01,2013-03-08 07:52:00,
2013-03-08 02:57:00,19.4,19.4,30.47,WNW,302,0.0,0.0,100,0.00,,---,0.00,VWS V14.01,2013-03-08 07:57:00,
2013-03-08 03:02:00,19.3,17.4,30.47,WNW,302,0.0,0.0,92,0.00,,---,0.00,VWS V14.01,2013-03-08 08:02:00,
2013-03-08 03:07:00,19.3,17.4,30.46,WNW,302,0.0,0.0,92,0.00,,---,0.00,VWS V14.01,2013-03-08 08:07:00,
2013-03-08 03:12:00,19.1,17.2,30.47,WNW,302,0.0,0.0,92,0.00,,---,0.00,VWS V14.01,2013-03-08 08:12:00,
2013-03-08 03:17:00,19.0,17.1,30.47,WNW,302,0.0,0.0,92,0.00,,---,0.00,VWS V14.01,2013-03-08 08:17:00,
2013-03-08 03:22:00,18.9,17.0,30.46,WNW,302,0.0,0.0,92,0.00,,---,0.00,VWS V14.01,2013-03-08 08:22:00,
2013-03-08 03:27:00,18.9,17.0,30.46,WNW,302,0.0,0.0,92,0.00,,---,0.00,VWS V14.01,2013-03-08 08:27:00,
2013-03-08 03:32:00,18.8,16.9,30.46,WNW,302,0.0,0.0,92,0.00,,---,0.00,VWS V14.01,2013-03-08 08:32:00,
2013-03-08 03:37:00,18.8,16.9,30.47,WNW,302,0.0,0.0,92,0.00,,---,0.00,VWS V14.01,2013-03-08 08:37:00,
2013-03-08 03:42:00,18.9,17.2,30.47,WNW,302,0.0,0.0,93,0.00,,---,0.00,VWS V14.01,2013-03-08 08:42:00,
2013-03-08 03:47:00,18.9,17.2,30.47,WNW,302,0.0,0.0,93,0.00,,---,0.00,VWS V14.01,2013-03-08 08:47:00,
2013-03-08 03:52:00,18.8,17.1,30.47,WNW,302,0.0,0.0,93,0.00,,---,0.00,VWS V14.01,2013-03-08 08:52:00,
2013-03-08 03:57:00,18.8,17.1,30.47,WNW,302,0.0,0.0,93,0.00,,---,0.00,VWS V14.01,2013-03-08 08:57:00,
2013-03-08 04:02:00,18.8,17.1,30.47,WNW,302,0.0,0.0,93,0.00,,---,0.00,VWS V14.01,2013-03-08 09:02:00,
2013-03-08 04:07:00,18.8,17.1,30.47,WNW,302,0.0,0.0,93,0.00,,---,0.00,VWS V14.01,2013-03-08 09:07:00,
2013-03-08 04:12:00,18.8,17.1,30.47,WNW,302,0.0,0.0,93,0.00,,---,0.00,VWS V14.01,2013-03-08 09:12:00,
2013-03-08 04:17:00,18.7,17.0,30.47,WNW,302,0.0,0.0,93,0.00,,---,0.00,VWS V14.01,2013-03-08 09:17:00,
2013-03-08 04:22:00,18.7,17.0,30.47,WNW,302,0.0,0.0,93,0.00,,---,0.00,VWS V14.01,2013-03-08 09:22:00,
2013-03-08 04:27:00,18.6,16.9,30.47,WNW,302,0.0,0.0,93,0.00,,---,0.00,VWS V14.01,2013-03-08 09:27:00,
2013-03-08 04:32:00,18.5,16.8,30.47,WNW,302,0.0,0.0,93,0.00,,---,0.00,VWS V14.01,2013-03-08 09:32:00,
2013-03-08 04:37:00,18.4,16.7,30.48,WNW,302,0.0,0.0,93,0.00,,---,0.00,VWS V14.01,2013-03-08 09:37:00,
2013-03-08 04:42:00,18.2,16.5,30.48,WNW,302,0.0,0.0,93,0.00,,---,0.00,VWS V14.01,2013-03-08 09:42:00,
2013-03-08 04:47:00,17.9,16.2,30.48,WNW,302,0.0,0.0,93,0.00,,---,0.00,VWS V14.01,2013-03-08 09:47:00,
2013-03-08 04:52:00,17.8,16.1,30.48,WNW,302,0.0,0.0,93,0.00,,---,0.00,VWS V14.01,2013-03-08 09:52:00,
2013-03-08 04:57:00,17.7,16.0,30.48,WNW,302,0.0,0.0,93,0.00,,---,0.00,VWS V14.01,2013-03-08 09:57:00,
2013-03-08 05:02:00,17.8,16.1,30.49,WNW,302,0.0,0.0,93,0.00,,---,0.00,VWS V14.01,2013-03-08 10:02:00,
2013-03-08 05:07:00,17.7,16.0,30.48,WNW,302,0.0,0.0,93,0.00,,---,0.00,VWS V14.01,2013-03-08 10:07:00,
2013-03-08 05:12:00,17.7,16.0,30.49,WNW,302,0.0,0.0,93,0.00,,---,0.00,VWS V14.01,2013-03-08 10:12:00,
2013-03-08 05:17:00,17.7,16.0,30.49,WNW,302,0.0,0.0,93,0.00,,---,0.00,VWS V14.01,2013-03-08 10:17:00,
2013-03-08 05:22:00,17.6,15.9,30.49,WNW,302,0.0,0.0,93,0.00,,---,0.00,VWS V14.01,2013-03-08 10:22:00,
2013-03-08 05:27:00,17.6,15.9,30.49,WNW,302,0.0,0.0,93,0.00,,---,0.00,VWS V14.01,2013-03-08 10:27:00,
2013-03-08 05:32:00,17.5,15.8,30.49,WNW,302,0.0,0.0,93,0.00,,---,0.00,VWS V14.01,2013-03-08 10:32:00,
2013-03-08 05:37:00,17.5,15.8,30.49,WNW,302,0.0,0.0,93,0.00,,---,0.00,VWS V14.01,2013-03-08 10:37:00,
2013-03-08 05:42:00,17.3,15.6,30.49,WNW,302,0.0,0.0,93,0.00,,---,0.00,VWS V14.01,2013-03-08 10:42:00,
2013-03-08 05:47:00,17.3,15.6,30.49,WNW,302,0.0,0.0,93,0.00,,---,0.00,VWS V14.01,2013-03-08 10:47:00,
2013-03-08 05:52:00,17.3,15.6,30.50,WNW,302,0.0,0.0,93,0.00,,---,0.00,VWS V14.01,2013-03-08 10:52:00,
2013-03-08 05:57:00,17.2,15.5,30.50,WNW,302,0.0,0.0,93,0.00,,---,0.00,VWS V14.01,2013-03-08 10:57:00,
2013-03-08 06:02:00,17.2,15.5,30.50,WNW,302,0.0,0.0,93,0.00,,---,0.00,VWS V14.01,2013-03-08 11:02:00,
2013-03-08 06:07:00,17.2,15.5,30.50,WNW,302,0.0,0.0,93,0.00,,---,0.00,VWS V14.01,2013-03-08 11:07:00,
2013-03-08 06:12:00,17.2,15.5,30.50,WNW,302,0.0,0.0,93,0.00,,---,0.00,VWS V14.01,2013-03-08 11:12:00,
2013-03-08 06:17:00,17.2,15.5,30.50,WNW,302,0.0,0.0,93,0.00,,---,0.00,VWS V14.01,2013-03-08 11:17:00,
2013-03-08 06:22:00,17.2,15.5,30.50,WNW,302,0.0,0.0,93,0.00,,---,0.00,VWS V14.01,2013-03-08 11:22:00,
2013-03-08 06:28:00,17.1,15.4,30.50,WNW,302,0.0,0.0,93,0.00,,---,0.00,VWS V14.01,2013-03-08 11:28:00,
2013-03-08 06:33:00,17.1,15.4,30.50,WNW,302,0.0,0.0,93,0.00,,---,0.00,VWS V14.01,2013-03-08 11:33:00,
2013-03-08 06:38:00,17.0,15.3,30.51,WNW,302,0.0,0.0,93,0.00,,---,0.00,VWS V14.01,2013-03-08 11:38:00,
2013-03-08 06:43:00,17.0,15.3,30.51,WNW,302,0.0,0.0,93,0.00,,---,0.00,VWS V14.01,2013-03-08 11:43:00,
2013-03-08 06:48:00,16.9,15.2,30.50,WNW,302,0.0,0.0,93,0.00,,---,0.00,VWS V14.01,2013-03-08 11:48:00,
2013-03-08 06:53:00,16.9,15.2,30.51,WNW,302,0.0,0.0,93,0.00,,---,0.00,VWS V14.01,2013-03-08 11:53:00,
2013-03-08 06:58:00,16.6,14.9,30.51,WNW,302,0.0,0.0,93,0.00,,---,0.00,VWS V14.01,2013-03-08 11:58:00,
2013-03-08 07:03:00,16.1,14.4,30.51,WNW,302,2.0,2.0,93,0.00,,---,0.00,VWS V14.01,2013-03-08 12:03:00,
2013-03-08 07:08:00,16.1,14.4,30.52,WNW,302,1.0,2.0,93,0.00,,---,0.00,VWS V14.01,2013-03-08 12:08:00,
2013-03-08 07:13:00,16.0,14.3,30.51,WNW,302,1.0,2.0,93,0.00,,---,0.00,VWS V14.01,2013-03-08 12:13:00,
2013-03-08 07:18:00,15.7,14.0,30.51,WNW,302,1.0,3.0,93,0.00,,---,0.00,VWS V14.01,2013-03-08 12:18:00,
2013-03-08 07:23:00,15.6,13.9,30.51,WNW,302,0.0,2.0,93,0.00,,---,0.00,VWS V14.01,2013-03-08 12:23:00,
2013-03-08 07:28:00,15.6,13.9,30.51,WNW,302,0.0,0.0,93,0.00,,---,0.00,VWS V14.01,2013-03-08 12:28:00,
2013-03-08 07:33:00,15.6,13.9,30.51,WNW,302,0.0,0.0,93,0.00,,---,0.00,VWS V14.01,2013-03-08 12:33:00,
2013-03-08 07:38:00,15.8,14.1,30.51,WNW,302,0.0,0.0,93,0.00,,---,0.00,VWS V14.01,2013-03-08 12:38:00,
2013-03-08 07:43:00,16.1,14.7,30.51,WNW,302,0.0,0.0,94,0.00,,---,0.00,VWS V14.01,2013-03-08 12:43:00,
2013-03-08 07:48:00,16.6,15.2,30.51,WNW,302,0.0,0.0,94,0.00,,---,0.00,VWS V14.01,2013-03-08 12:48:00,
2013-03-08 07:53:00,17.0,15.6,30.51,WNW,302,0.0,0.0,94,0.00,,---,0.00,VWS V14.01,2013-03-08 12:53:00,
2013-03-08 07:58:00,17.6,16.2,30.51,WNW,302,0.0,0.0,94,0.00,,---,0.00,VWS V14.01,2013-03-08 12:58:00,
2013-03-08 08:03:00,18.2,17.0,30.51,WNW,302,0.0,0.0,95,0.00,,---,0.00,VWS V14.01,2013-03-08 13:03:00,
2013-03-08 08:08:00,18.8,17.6,30.52,WNW,302,0.0,0.0,95,0.00,,---,0.00,VWS V14.01,2013-03-08 13:08:00,
2013-03-08 08:13:00,19.2,18.0,30.52,WNW,302,0.0,0.0,95,0.00,,---,0.00,VWS V14.01,2013-03-08 13:13:00,
2013-03-08 08:18:00,19.8,18.6,30.52,WNW,302,0.0,0.0,95,0.00,,---,0.00,VWS V14.01,2013-03-08 13:18:00,
2013-03-08 08:23:00,20.1,18.9,30.53,WNW,302,0.0,0.0,95,0.00,,---,0.00,VWS V14.01,2013-03-08 13:23:00,
2013-03-08 08:28:00,20.2,18.8,30.53,WNW,302,0.0,0.0,94,0.00,,---,0.00,VWS V14.01,2013-03-08 13:28:00,
2013-03-08 08:33:00,20.4,19.0,30.53,WNW,302,0.0,0.0,94,0.00,,---,0.00,VWS V14.01,2013-03-08 13:33:00,
2013-03-08 08:38:00,20.7,19.2,30.53,WNW,302,0.0,0.0,94,0.00,,---,0.00,VWS V14.01,2013-03-08 13:38:00,
2013-03-08 08:43:00,21.0,19.5,30.53,WNW,302,0.0,0.0,94,0.00,,---,0.00,VWS V14.01,2013-03-08 13:43:00,
2013-03-08 08:48:00,21.3,19.9,30.53,WNW,302,0.0,0.0,94,0.00,,---,0.00,VWS V14.01,2013-03-08 13:48:00,
2013-03-08 08:53:00,21.8,20.3,30.53,WNW,302,0.0,0.0,94,0.00,,---,0.00,VWS V14.01,2013-03-08 13:53:00,
2013-03-08 08:58:00,22.4,20.9,30.52,WNW,302,0.0,0.0,94,0.00,,---,0.00,VWS V14.01,2013-03-08 13:58:00,
2013-03-08 09:03:00,23.4,21.9,30.53,WNW,302,0.0,0.0,94,0.00,,---,0.00,VWS V14.01,2013-03-08 14:03:00,
2013-03-08 09:08:00,24.1,22.6,30.53,WNW,302,0.0,0.0,94,0.00,,---,0.00,VWS V14.01,2013-03-08 14:08:00,
2013-03-08 09:13:00,24.7,23.2,30.53,WNW,302,1.0,1.0,94,0.00,,---,0.00,VWS V14.01,2013-03-08 14:13:00,
2013-03-08 09:18:00,25.5,24.0,30.53,WNW,302,1.0,2.0,94,0.00,,---,0.00,VWS V14.01,2013-03-08 14:18:00,
2013-03-08 09:23:00,26.1,24.4,30.53,WNW,302,0.0,2.0,93,0.00,,---,0.00,VWS V14.01,2013-03-08 14:23:00,
2013-03-08 09:28:00,26.7,25.0,30.53,WNW,302,0.0,0.0,93,0.00,,---,0.00,VWS V14.01,2013-03-08 14:28:00,
2013-03-08 09:33:00,27.5,25.5,30.53,SSE,167,2.0,5.0,92,0.00,,---,0.00,VWS V14.01,2013-03-08 14:33:00,
2013-03-08 09:38:00,28.6,25.2,30.52,SSE,164,5.0,5.0,87,0.00,,---,0.00,VWS V14.01,2013-03-08 14:38:00,
2013-03-08 09:43:00,29.5,25.0,30.52,SSE,162,4.0,6.0,83,0.00,,---,0.00,VWS V14.01,2013-03-08 14:43:00,
2013-03-08 09:48:00,30.2,24.8,30.52,SSE,162,2.0,6.0,80,0.00,,---,0.00,VWS V14.01,2013-03-08 14:48:00,
2013-03-08 09:53:00,30.8,24.8,30.53,SSE,162,2.0,6.0,78,0.00,,---,0.00,VWS V14.01,2013-03-08 14:53:00,
2013-03-08 09:58:00,31.4,24.7,30.53,South,173,2.0,6.0,76,0.00,,---,0.00,VWS V14.01,2013-03-08 14:58:00,
2013-03-08 10:03:00,32.1,25.1,30.53,South,173,4.0,5.0,75,0.00,,---,0.00,VWS V14.01,2013-03-08 15:03:00,
2013-03-08 10:08:00,32.8,25.1,30.53,South,173,4.0,5.0,73,0.00,,---,0.00,VWS V14.01,2013-03-08 15:08:00,
2013-03-08 10:13:00,33.2,24.8,30.53,South,173,4.0,5.0,71,0.00,,---,0.00,VWS V14.01,2013-03-08 15:13:00,
2013-03-08 10:18:00,33.7,25.0,30.53,South,173,1.0,5.0,70,0.00,,---,0.00,VWS V14.01,2013-03-08 15:18:00,
2013-03-08 10:23:00,34.1,25.4,30.53,South,173,2.0,5.0,70,0.00,,---,0.00,VWS V14.01,2013-03-08 15:23:00,
2013-03-08 10:28:00,34.6,25.5,30.53,South,176,5.0,6.0,69,0.00,,---,0.00,VWS V14.01,2013-03-08 15:28:00,
2013-03-08 10:33:00,35.0,25.9,30.53,South,178,4.0,5.0,69,0.00,,---,0.00,VWS V14.01,2013-03-08 15:33:00,
2013-03-08 10:38:00,35.0,25.9,30.53,South,178,2.0,5.0,69,0.00,,---,0.00,VWS V14.01,2013-03-08 15:38:00,
2013-03-08 10:43:00,35.3,25.8,30.53,South,178,4.0,4.0,68,0.00,,---,0.00,VWS V14.01,2013-03-08 15:43:00,
2013-03-08 10:48:00,36.1,26.2,30.53,South,178,0.0,4.0,67,0.00,,---,0.00,VWS V14.01,2013-03-08 15:48:00,
2013-03-08 10:53:00,36.2,26.0,30.53,South,178,0.0,5.0,66,0.00,,---,0.00,VWS V14.01,2013-03-08 15:53:00,
2013-03-08 10:58:00,37.2,26.9,30.53,South,178,0.0,0.0,66,0.00,,---,0.00,VWS V14.01,2013-03-08 15:58:00,
2013-03-08 11:03:00,38.3,27.2,30.53,South,178,0.0,4.0,64,0.00,,---,0.00,VWS V14.01,2013-03-08 16:03:00,
2013-03-08 11:08:00,39.2,26.9,30.53,South,178,0.0,5.0,61,0.00,,---,0.00,VWS V14.01,2013-03-08 16:08:00,
2013-03-08 11:13:00,39.9,26.8,30.53,South,178,0.0,5.0,59,0.00,,---,0.00,VWS V14.01,2013-03-08 16:13:00,
2013-03-08 11:18:00,40.3,26.7,30.53,South,178,0.0,0.0,58,0.00,,---,0.00,VWS V14.01,2013-03-08 16:18:00,
2013-03-08 11:23:00,40.6,27.0,30.52,South,178,1.0,4.0,58,0.00,,---,0.00,VWS V14.01,2013-03-08 16:23:00,
2013-03-08 11:28:00,40.9,26.4,30.52,South,178,0.0,2.0,56,0.00,,---,0.00,VWS V14.01,2013-03-08 16:28:00,
2013-03-08 11:33:00,41.6,27.1,30.52,South,178,2.0,5.0,56,0.00,,---,0.00,VWS V14.01,2013-03-08 16:33:00,
2013-03-08 11:38:00,41.7,26.7,30.52,South,178,0.0,4.0,55,0.00,,---,0.00,VWS V14.01,2013-03-08 16:38:00,
2013-03-08 11:43:00,41.5,26.1,30.52,South,178,4.0,6.0,54,0.00,,---,0.00,VWS V14.01,2013-03-08 16:43:00,
2013-03-08 11:48:00,41.5,26.5,30.52,SSW,194,1.0,4.0,55,0.00,,---,0.00,VWS V14.01,2013-03-08 16:48:00,
2013-03-08 11:53:00,41.5,26.5,30.52,WSW,254,3.0,4.0,55,0.00,,---,0.00,VWS V14.01,2013-03-08 16:53:00,
2013-03-08 11:58:00,40.4,26.0,30.52,WSW,254,1.0,4.0,56,0.00,,---,0.00,VWS V14.01,2013-03-08 16:58:00,
2013-03-08 12:03:00,40.3,26.3,30.51,WSW,254,2.0,2.0,57,0.00,,---,0.00,VWS V14.01,2013-03-08 17:03:00,
2013-03-08 12:08:00,40.1,26.5,30.51,WSW,254,1.0,2.0,58,0.00,,---,0.00,VWS V14.01,2013-03-08 17:08:00,
2013-03-08 12:13:00,40.4,26.8,30.51,WSW,254,0.0,2.0,58,0.00,,---,0.00,VWS V14.01,2013-03-08 17:13:00,
2013-03-08 12:18:00,40.9,26.9,30.52,WSW,254,0.0,3.0,57,0.00,,---,0.00,VWS V14.01,2013-03-08 17:18:00,
2013-03-08 12:23:00,41.6,27.5,30.52,WSW,254,0.0,0.0,57,0.00,,---,0.00,VWS V14.01,2013-03-08 17:23:00,
2013-03-08 12:28:00,42.2,27.6,30.52,WSW,254,0.0,0.0,56,0.00,,---,0.00,VWS V14.01,2013-03-08 17:28:00,
2013-03-08 12:33:00,42.5,27.5,30.52,WSW,254,2.0,4.0,55,0.00,,---,0.00,VWS V14.01,2013-03-08 17:33:00,
2013-03-08 12:38:00,42.5,27.0,30.51,WSW,254,1.0,2.0,54,0.00,,---,0.00,VWS V14.01,2013-03-08 17:38:00,
2013-03-08 12:43:00,42.1,26.2,30.52,WSW,254,1.0,2.0,53,0.00,,---,0.00,VWS V14.01,2013-03-08 17:43:00,
2013-03-08 12:48:00,41.3,25.9,30.51,WSW,254,1.0,4.0,54,0.00,,---,0.00,VWS V14.01,2013-03-08 17:48:00,
2013-03-08 12:54:00,40.6,25.7,30.50,WSW,254,0.0,0.0,55,0.00,,---,0.00,VWS V14.01,2013-03-08 17:54:00,
2013-03-08 12:59:00,40.4,26.0,30.50,WSW,254,2.0,2.0,56,0.00,,---,0.00,VWS V14.01,2013-03-08 17:59:00,
2013-03-08 13:04:00,40.2,26.2,30.50,WSW,254,2.0,2.0,57,0.00,,---,0.00,VWS V14.01,2013-03-08 18:04:00,
2013-03-08 13:09:00,39.6,25.6,30.49,WSW,254,0.0,0.0,57,0.00,,---,0.00,VWS V14.01,2013-03-08 18:09:00,
2013-03-08 13:14:00,39.7,27.0,30.49,WSW,254,2.0,3.0,60,0.00,,---,0.00,VWS V14.01,2013-03-08 18:14:00,
2013-03-08 13:19:00,39.5,26.0,30.49,WSW,254,2.0,2.0,58,0.00,,---,0.00,VWS V14.01,2013-03-08 18:19:00,
2013-03-08 13:24:00,39.2,26.1,30.49,WSW,254,2.0,2.0,59,0.00,,---,0.00,VWS V14.01,2013-03-08 18:24:00,
2013-03-08 13:29:00,39.1,26.0,30.49,WSW,254,1.0,3.0,59,0.00,,---,0.00,VWS V14.01,2013-03-08 18:29:00,
2013-03-08 13:34:00,39.5,26.0,30.49,WSW,254,0.0,2.0,58,0.00,,---,0.00,VWS V14.01,2013-03-08 18:34:00,
2013-03-08 13:38:00,40.2,26.2,30.49,WSW,254,0.0,1.0,57,0.00,,---,0.00,VWS V14.01,2013-03-08 18:38:00,
2013-03-08 13:43:00,40.3,26.7,30.48,WSW,254,3.0,4.0,58,0.00,,---,0.00,VWS V14.01,2013-03-08 18:43:00,
2013-03-08 13:49:00,39.7,25.7,30.48,WSW,254,3.0,4.0,57,0.00,,---,0.00,VWS V14.01,2013-03-08 18:49:00,
2013-03-08 13:54:00,39.3,25.8,30.47,WSW,254,1.0,1.0,58,0.00,,---,0.00,VWS V14.01,2013-03-08 18:54:00,
2013-03-08 13:59:00,39.5,26.0,30.47,WSW,254,1.0,1.0,58,0.00,,---,0.00,VWS V14.01,2013-03-08 18:59:00,
2013-03-08 14:04:00,40.0,26.0,30.47,WSW,254,0.0,0.0,57,0.00,,---,0.00,VWS V14.01,2013-03-08 19:04:00,
2013-03-08 14:09:00,40.9,26.4,30.47,WSW,254,0.0,0.0,56,0.00,,---,0.00,VWS V14.01,2013-03-08 19:09:00,
2013-03-08 14:14:00,41.9,26.0,30.47,WSW,254,0.0,0.0,53,0.00,,---,0.00,VWS V14.01,2013-03-08 19:14:00,
2013-03-08 14:19:00,42.5,26.1,30.47,WSW,254,1.0,2.0,52,0.00,,---,0.00,VWS V14.01,2013-03-08 19:19:00,
2013-03-08 14:24:00,42.5,26.1,30.47,WSW,254,1.0,1.0,52,0.00,,---,0.00,VWS V14.01,2013-03-08 19:24:00,
2013-03-08 14:29:00,42.2,25.9,30.47,WSW,254,0.0,0.0,52,0.00,,---,0.00,VWS V14.01,2013-03-08 19:29:00,
2013-03-08 14:34:00,42.3,26.9,30.47,WSW,254,1.0,1.0,54,0.00,,---,0.00,VWS V14.01,2013-03-08 19:34:00,
2013-03-08 14:39:00,42.7,26.3,30.47,WSW,254,0.0,0.0,52,0.00,,---,0.00,VWS V14.01,2013-03-08 19:39:00,
2013-03-08 14:44:00,43.6,26.2,30.47,WSW,254,0.0,0.0,50,0.00,,---,0.00,VWS V14.01,2013-03-08 19:44:00,
2013-03-08 14:49:00,44.1,26.2,30.47,WSW,254,0.0,0.0,49,0.00,,---,0.00,VWS V14.01,2013-03-08 19:49:00,
2013-03-08 14:54:00,44.9,26.9,30.47,WSW,254,0.0,0.0,49,0.00,,---,0.00,VWS V14.01,2013-03-08 19:54:00,
2013-03-08 14:59:00,45.3,26.8,30.47,WSW,254,0.0,0.0,48,0.00,,---,0.00,VWS V14.01,2013-03-08 19:59:00,
2013-03-08 15:04:00,45.4,26.4,30.47,WSW,254,0.0,0.0,47,0.00,,---,0.00,VWS V14.01,2013-03-08 20:04:00,
2013-03-08 15:09:00,45.3,26.3,30.47,WSW,254,0.0,0.0,47,0.00,,---,0.00,VWS V14.01,2013-03-08 20:09:00,
2013-03-08 15:14:00,45.1,26.6,30.47,WSW,254,0.0,0.0,48,0.00,,---,0.00,VWS V14.01,2013-03-08 20:14:00,
2013-03-08 15:19:00,45.2,26.2,30.47,WSW,254,2.0,2.0,47,0.00,,---,0.00,VWS V14.01,2013-03-08 20:19:00,
2013-03-08 15:24:00,45.2,26.2,30.46,WSW,254,1.0,1.0,47,0.00,,---,0.00,VWS V14.01,2013-03-08 20:24:00,
2013-03-08 15:29:00,45.3,27.3,30.46,WSW,254,0.0,0.0,49,0.00,,---,0.00,VWS V14.01,2013-03-08 20:29:00,
2013-03-08 15:34:00,45.0,26.0,30.46,WSW,254,3.0,3.0,47,0.00,,---,0.00,VWS V14.01,2013-03-08 20:34:00,
2013-03-08 15:39:00,44.4,25.5,30.46,WSW,254,0.0,0.0,47,0.00,,---,0.00,VWS V14.01,2013-03-08 20:39:00,
2013-03-08 15:44:00,44.1,26.2,30.46,WSW,254,1.0,3.0,49,0.00,,---,0.00,VWS V14.01,2013-03-08 20:44:00,
2013-03-08 15:49:00,43.4,26.0,30.46,WSW,254,2.0,2.0,50,0.00,,---,0.00,VWS V14.01,2013-03-08 20:49:00,
2013-03-08 15:54:00,42.8,25.5,30.45,WSW,254,0.0,1.0,50,0.00,,---,0.00,VWS V14.01,2013-03-08 20:54:00,
2013-03-08 15:59:00,42.4,25.1,30.45,WSW,254,0.0,0.0,50,0.00,,---,0.00,VWS V14.01,2013-03-08 20:59:00,
2013-03-08 16:04:00,42.6,25.8,30.45,WSW,254,0.0,0.0,51,0.00,,---,0.00,VWS V14.01,2013-03-08 21:04:00,
2013-03-08 16:09:00,42.8,25.5,30.45,WSW,254,0.0,0.0,50,0.00,,---,0.00,VWS V14.01,2013-03-08 21:09:00,
2013-03-08 16:14:00,43.7,26.8,30.45,WSW,254,0.0,0.0,51,0.00,,---,0.00,VWS V14.01,2013-03-08 21:14:00,
2013-03-08 16:19:00,44.1,26.2,30.45,WSW,254,2.0,2.0,49,0.00,,---,0.00,VWS V14.01,2013-03-08 21:19:00,
2013-03-08 16:24:00,44.0,26.6,30.44,WSW,254,0.0,0.0,50,0.00,,---,0.00,VWS V14.01,2013-03-08 21:24:00,
2013-03-08 16:29:00,43.8,25.9,30.44,WSW,254,0.0,0.0,49,0.00,,---,0.00,VWS V14.01,2013-03-08 21:29:00,
2013-03-08 16:34:00,43.6,25.7,30.44,WSW,254,2.0,2.0,49,0.00,,---,0.00,VWS V14.01,2013-03-08 21:34:00,
2013-03-08 16:39:00,43.5,26.1,30.44,WSW,254,0.0,0.0,50,0.00,,---,0.00,VWS V14.01,2013-03-08 21:39:00,
2013-03-08 16:44:00,43.7,27.2,30.44,WSW,254,2.0,2.0,52,0.00,,---,0.00,VWS V14.01,2013-03-08 21:44:00,
2013-03-08 16:49:00,43.7,26.3,30.44,WSW,254,2.0,2.0,50,0.00,,---,0.00,VWS V14.01,2013-03-08 21:49:00,
2013-03-08 16:54:00,43.5,26.1,30.44,WSW,254,1.0,1.0,50,0.00,,---,0.00,VWS V14.01,2013-03-08 21:54:00,
2013-03-08 16:59:00,43.4,26.0,30.44,WSW,254,0.0,0.0,50,0.00,,---,0.00,VWS V14.01,2013-03-08 21:59:00,
2013-03-08 17:04:00,43.4,25.5,30.44,WSW,254,0.0,0.0,49,0.00,,---,0.00,VWS V14.01,2013-03-08 22:04:00,
2013-03-08 17:09:00,43.4,26.0,30.44,WSW,254,0.0,0.0,50,0.00,,---,0.00,VWS V14.01,2013-03-08 22:09:00,
2013-03-08 17:14:00,43.5,26.1,30.44,WSW,254,1.0,1.0,50,0.00,,---,0.00,VWS V14.01,2013-03-08 22:14:00,
2013-03-08 17:19:00,43.4,26.0,30.43,WSW,254,1.0,1.0,50,0.00,,---,0.00,VWS V14.01,2013-03-08 22:19:00,
2013-03-08 17:24:00,43.4,26.5,30.43,WSW,254,0.0,0.0,51,0.00,,---,0.00,VWS V14.01,2013-03-08 22:24:00,
2013-03-08 17:29:00,43.3,25.9,30.44,WSW,254,0.0,0.0,50,0.00,,---,0.00,VWS V14.01,2013-03-08 22:29:00,
2013-03-08 17:34:00,43.1,26.7,30.43,WSW,254,0.0,0.0,52,0.00,,---,0.00,VWS V14.01,2013-03-08 22:34:00,
2013-03-08 17:39:00,42.9,27.9,30.43,WSW,254,0.0,0.0,55,0.00,,---,0.00,VWS V14.01,2013-03-08 22:39:00,
2013-03-08 17:44:00,42.7,25.4,30.43,WSW,254,0.0,0.0,50,0.00,,---,0.00,VWS V14.01,2013-03-08 22:44:00,
2013-03-08 17:49:00,42.6,24.8,30.43,WSW,254,0.0,0.0,49,0.00,,---,0.00,VWS V14.01,2013-03-08 22:49:00,
2013-03-08 17:54:00,42.6,24.8,30.43,WSW,254,0.0,0.0,49,0.00,,---,0.00,VWS V14.01,2013-03-08 22:54:00,
2013-03-08 17:59:00,42.5,24.7,30.43,WSW,254,0.0,0.0,49,0.00,,---,0.00,VWS V14.01,2013-03-08 22:59:00,
2013-03-08 18:04:00,42.5,25.2,30.43,WSW,254,0.0,0.0,50,0.00,,---,0.00,VWS V14.01,2013-03-08 23:04:00,
2013-03-08 18:09:00,42.1,26.7,30.43,WSW,254,3.0,3.0,54,0.00,,---,0.00,VWS V14.01,2013-03-08 23:09:00,
2013-03-08 18:14:00,41.1,25.3,30.43,WSW,254,1.0,2.0,53,0.00,,---,0.00,VWS V14.01,2013-03-08 23:14:00,
2013-03-08 18:19:00,40.8,26.3,30.43,WSW,254,0.0,0.0,56,0.00,,---,0.00,VWS V14.01,2013-03-08 23:19:00,
2013-03-08 18:24:00,40.4,25.5,30.42,WSW,254,0.0,0.0,55,0.00,,---,0.00,VWS V14.01,2013-03-08 23:24:00,
2013-03-08 18:29:00,40.1,25.7,30.42,WSW,254,0.0,0.0,56,0.00,,---,0.00,VWS V14.01,2013-03-08 23:29:00,
2013-03-08 18:34:00,39.9,25.5,30.43,WSW,254,3.0,3.0,56,0.00,,---,0.00,VWS V14.01,2013-03-08 23:34:00,
2013-03-08 18:39:00,39.5,25.5,30.43,WSW,254,2.0,3.0,57,0.00,,---,0.00,VWS V14.01,2013-03-08 23:39:00,
2013-03-08 18:44:00,39.2,25.7,30.43,WSW,254,2.0,2.0,58,0.00,,---,0.00,VWS V14.01,2013-03-08 23:44:00,
2013-03-08 18:49:00,38.7,26.0,30.43,WSW,254,1.0,2.0,60,0.00,,---,0.00,VWS V14.01,2013-03-08 23:49:00,
2013-03-08 18:54:00,38.3,26.0,30.42,WSW,254,3.0,3.0,61,0.00,,---,0.00,VWS V14.01,2013-03-08 23:54:00,
2013-03-08 18:59:00,37.9,26.1,30.43,WSW,254,2.0,3.0,62,0.00,,---,0.00,VWS V14.01,2013-03-08 23:59:00,
2013-03-08 19:04:00,37.5,26.1,30.43,WSW,254,2.0,3.0,63,0.00,,---,0.00,VWS V14.01,2013-03-09 00:04:00,
2013-03-08 19:09:00,37.1,25.7,30.43,WSW,254,1.0,1.0,63,0.00,,---,0.00,VWS V14.01,2013-03-09 00:09:00,
2013-03-08 19:14:00,36.8,25.8,30.43,WSW,254,2.0,2.0,64,0.00,,---,0.00,VWS V14.01,2013-03-09 00:14:00,
2013-03-08 19:19:00,36.4,26.1,30.43,WSW,253,3.0,4.0,66,0.00,,---,0.00,VWS V14.01,2013-03-09 00:19:00,
2013-03-08 19:24:00,36.0,25.8,30.43,South,169,1.0,1.0,66,0.00,,---,0.00,VWS V14.01,2013-03-09 00:24:00,
2013-03-08 19:29:00,35.7,25.8,30.44,South,169,1.0,2.0,67,0.00,,---,0.00,VWS V14.01,2013-03-09 00:29:00,
2013-03-08 19:34:00,35.5,25.6,30.44,South,169,2.0,2.0,67,0.00,,---,0.00,VWS V14.01,2013-03-09 00:34:00,
2013-03-08 19:39:00,35.2,25.7,30.43,South,169,1.0,2.0,68,0.00,,---,0.00,VWS V14.01,2013-03-09 00:39:00,
2013-03-08 19:44:00,34.9,25.4,30.43,South,169,1.0,1.0,68,0.00,,---,0.00,VWS V14.01,2013-03-09 00:44:00,
2013-03-08 19:49:00,34.7,25.2,30.43,South,169,1.0,1.0,68,0.00,,---,0.00,VWS V14.01,2013-03-09 00:49:00,
2013-03-08 19:54:00,34.5,25.4,30.43,South,169,1.0,1.0,69,0.00,,---,0.00,VWS V14.01,2013-03-09 00:54:00,
2013-03-08 19:59:00,34.3,24.9,30.44,South,169,2.0,4.0,68,0.00,,---,0.00,VWS V14.01,2013-03-09 00:59:00,
2013-03-08 20:04:00,34.2,25.1,30.44,South,169,4.0,4.0,69,0.00,,---,0.00,VWS V14.01,2013-03-09 01:04:00,
2013-03-08 20:09:00,34.0,24.9,30.44,South,169,2.0,2.0,69,0.00,,---,0.00,VWS V14.01,2013-03-09 01:09:00,
2013-03-08 20:14:00,33.8,24.7,30.44,South,169,0.0,0.0,69,0.00,,---,0.00,VWS V14.01,2013-03-09 01:14:00,
2013-03-08 20:19:00,33.7,25.0,30.44,South,169,1.0,2.0,70,0.00,,---,0.00,VWS V14.01,2013-03-09 01:19:00,
2013-03-08 20:24:00,33.5,24.8,30.44,South,169,0.0,0.0,70,0.00,,---,0.00,VWS V14.01,2013-03-09 01:24:00,
2013-03-08 20:29:00,33.4,24.7,30.44,South,169,2.0,2.0,70,0.00,,---,0.00,VWS V14.01,2013-03-09 01:29:00,
2013-03-08 20:34:00,33.3,24.6,30.44,South,169,0.0,0.0,70,0.00,,---,0.00,VWS V14.01,2013-03-09 01:34:00,
2013-03-08 20:39:00,33.2,24.5,30.44,South,169,2.0,2.0,70,0.00,,---,0.00,VWS V14.01,2013-03-09 01:39:00,
2013-03-08 20:44:00,33.1,24.4,30.44,South,169,0.0,0.0,70,0.00,,---,0.00,VWS V14.01,2013-03-09 01:44:00,
2013-03-08 20:49:00,33.1,24.4,30.44,South,169,2.0,2.0,70,0.00,,---,0.00,VWS V14.01,2013-03-09 01:49:00,
2013-03-08 20:54:00,33.0,24.3,30.44,South,169,1.0,1.0,70,0.00,,---,0.00,VWS V14.01,2013-03-09 01:54:00,
2013-03-08 20:59:00,33.0,24.6,30.44,South,169,2.0,2.0,71,0.00,,---,0.00,VWS V14.01,2013-03-09 01:59:00,
2013-03-08 21:04:00,32.9,24.9,30.44,South,169,1.0,1.0,72,0.00,,---,0.00,VWS V14.01,2013-03-09 02:04:00,
2013-03-08 21:09:00,32.8,24.8,30.44,South,169,1.0,2.0,72,0.00,,---,0.00,VWS V14.01,2013-03-09 02:09:00,
2013-03-08 21:14:00,32.7,25.0,30.44,South,169,2.0,4.0,73,0.00,,---,0.00,VWS V14.01,2013-03-09 02:14:00,
2013-03-08 21:19:00,32.6,24.9,30.44,South,169,2.0,4.0,73,0.00,,---,0.00,VWS V14.01,2013-03-09 02:19:00,
2013-03-08 21:24:00,32.5,24.8,30.44,South,169,0.0,0.0,73,0.00,,---,0.00,VWS V14.01,2013-03-09 02:24:00,
2013-03-08 21:29:00,32.4,24.4,30.44,South,169,0.0,0.0,72,0.00,,---,0.00,VWS V14.01,2013-03-09 02:29:00,
2013-03-08 21:34:00,32.3,24.3,30.44,South,169,0.0,0.0,72,0.00,,---,0.00,VWS V14.01,2013-03-09 02:34:00,
2013-03-08 21:39:00,32.3,24.6,30.43,South,169,0.0,0.0,73,0.00,,---,0.00,VWS V14.01,2013-03-09 02:39:00,
2013-03-08 21:44:00,32.2,24.9,30.43,South,169,0.0,0.0,74,0.00,,---,0.00,VWS V14.01,2013-03-09 02:44:00,
2013-03-08 21:49:00,32.1,24.4,30.43,South,169,2.0,2.0,73,0.00,,---,0.00,VWS V14.01,2013-03-09 02:49:00,
2013-03-08 21:54:00,32.0,24.3,30.43,South,169,0.0,0.0,73,0.00,,---,0.00,VWS V14.01,2013-03-09 02:54:00,
2013-03-08 21:59:00,31.9,24.2,30.43,South,169,0.0,0.0,73,0.00,,---,0.00,VWS V14.01,2013-03-09 02:59:00,
2013-03-08 22:04:00,31.8,24.1,30.43,South,169,0.0,0.0,73,0.00,,---,0.00,VWS V14.01,2013-03-09 03:04:00,
2013-03-08 22:09:00,31.7,24.0,30.43,South,169,0.0,0.0,73,0.00,,---,0.00,VWS V14.01,2013-03-09 03:09:00,
2013-03-08 22:14:00,31.7,24.4,30.43,South,169,0.0,0.0,74,0.00,,---,0.00,VWS V14.01,2013-03-09 03:14:00,
2013-03-08 22:19:00,31.6,24.3,30.43,South,169,0.0,0.0,74,0.00,,---,0.00,VWS V14.01,2013-03-09 03:19:00,
2013-03-08 22:24:00,31.5,24.2,30.43,South,169,0.0,0.0,74,0.00,,---,0.00,VWS V14.01,2013-03-09 03:24:00,
2013-03-08 22:29:00,31.4,24.4,30.43,South,169,0.0,0.0,75,0.00,,---,0.00,VWS V14.01,2013-03-09 03:29:00,
2013-03-08 22:34:00,31.3,24.3,30.42,South,169,0.0,0.0,75,0.00,,---,0.00,VWS V14.01,2013-03-09 03:34:00,
2013-03-08 22:39:00,31.2,24.2,30.42,South,169,0.0,0.0,75,0.00,,---,0.00,VWS V14.01,2013-03-09 03:39:00,
2013-03-08 22:44:00,31.1,24.1,30.42,South,169,0.0,0.0,75,0.00,,---,0.00,VWS V14.01,2013-03-09 03:44:00,
2013-03-08 22:49:00,31.1,23.8,30.42,South,169,0.0,0.0,74,0.00,,---,0.00,VWS V14.01,2013-03-09 03:49:00,
2013-03-08 22:54:00,31.0,23.7,30.42,South,169,0.0,0.0,74,0.00,,---,0.00,VWS V14.01,2013-03-09 03:54:00,
2013-03-08 22:59:00,31.0,24.0,30.42,South,169,0.0,0.0,75,0.00,,---,0.00,VWS V14.01,2013-03-09 03:59:00,
2013-03-08 23:04:00,30.9,23.6,30.42,South,169,0.0,0.0,74,0.00,,---,0.00,VWS V14.01,2013-03-09 04:04:00,
2013-03-08 23:09:00,30.9,23.6,30.41,South,169,0.0,1.0,74,0.00,,---,0.00,VWS V14.01,2013-03-09 04:09:00,
2013-03-08 23:14:00,30.9,23.6,30.41,South,169,1.0,1.0,74,0.00,,---,0.00,VWS V14.01,2013-03-09 04:14:00,
2013-03-08 23:19:00,30.9,23.6,30.41,South,169,0.0,0.0,74,0.00,,---,0.00,VWS V14.01,2013-03-09 04:19:00,
2013-03-08 23:24:00,30.9,23.6,30.40,South,169,0.0,0.0,74,0.00,,---,0.00,VWS V14.01,2013-03-09 04:24:00,
2013-03-08 23:29:00,31.0,24.0,30.40,South,169,0.0,0.0,75,0.00,,---,0.00,VWS V14.01,2013-03-09 04:29:00,
2013-03-08 23:34:00,31.0,24.0,30.41,South,169,0.0,0.0,75,0.00,,---,0.00,VWS V14.01,2013-03-09 04:34:00,
2013-03-08 23:39:00,30.9,23.9,30.40,South,169,0.0,0.0,75,0.00,,---,0.00,VWS V14.01,2013-03-09 04:39:00,
2013-03-08 23:44:00,30.7,23.7,30.40,South,169,0.0,0.0,75,0.00,,---,0.00,VWS V14.01,2013-03-09 04:44:00,
2013-03-08 23:49:00,30.7,23.7,30.40,South,169,0.0,0.0,75,0.00,,---,0.00,VWS V14.01,2013-03-09 04:49:00,
2013-03-08 23:54:00,30.5,23.5,30.41,South,169,0.0,0.0,75,0.00,,---,0.00,VWS V14.01,2013-03-09 04:54:00,
2013-03-08 23:59:00,30.3,23.3,30.41,South,169,0.0,0.0,75,0.00,,---,0.00,VWS V14.01,2013-03-09 04:59:00,